Location: Corte Bragagnani
(45.3000°N, 11.1000°E)
Time: 04:01:25
(UTC+00:00)

Cosmos 1140 Rocket - Pass Details

Date: 09 April 2020
Orbit: 745 x 767 km, 74.1° (Epoch: 01 June)

Event Time Altitude Azimuth Distance (km) Brightness Sun altitude
Rises 18:23:18 0° 175° (S) 3,201 6.5 -5.8°
Reaches altitude 10° 18:25:49 10° 167° (SSE) 2,277 5.7 -6.2°
Maximum altitude 18:30:30 36° 102° (ESE) 1,184 4.0 -7.0°
Drops below altitude 10° 18:35:11 10° 37° (NE) 2,280 5.8 -7.7°
Sets 18:37:41 0° 29° (NNE) 3,206 6.6 -8.2°
